Regional Weather Roundup
Issued by NWS

Home | Current Version | Previous Version | Text Only | Print | Product List | Glossary On
Versions: 1 2 3 4 5 6 7 8 9 10 11 12 13 14 15 16 17 18 19 20 21 22 23 24 25 26 27 28 29 30 31 32 33 34 35 36 37 38 39 40 41 42 43 44 45 46 47 48
000
ASUS43 KMPX 130810
RWRMN
WEATHER ROUNDUP FOR MINNESOTA
NATIONAL WEATHER SERVICE TWIN CITIES/CHANHASSEN MN
300 AM CDT THU AUG 13 2020


NOTE: "FAIR" INDICATES FEW OR NO CLOUDS BELOW 12,000 FEET WITH NO
SIGNIFICANT WEATHER AND/OR OBSTRUCTIONS TO VISIBILITY. N/A MEANS
CURRENT SKY AND/OR WEATHER CONDITIONS ARE NOT AVAILABLE.

MNZ060>063-068>070-130900-
   Twin Cities Metro

CITY           SKY/WX    TMP DP  RH WIND       PRES   REMARKS
TWIN CITIES    MOCLDY    71  65  81 S6        30.02R
ST PAUL        PTCLDY    68  63  84 SE6       30.02S
CRYSTAL        PTCLDY    66  63  90 E3        29.99F
BLAINE         PTCLDY    66  66 100 E5        30.01F
LAKEVILLE      PTCLDY    72  61  68 S6        30.02F
EDEN PRAIRIE   CLEAR     71  66  84 S9        30.00S
SOUTH ST PAUL  CLEAR     67  65  91 CALM      30.02S
LAKE ELMO      MOCLDY    64  63  94 E5        30.04S
$$
MNZ001>005-007-008-013>017-022>024-027-028-130900-
   Northwest Minnesota

CITY           SKY/WX    TMP DP  RH WIND       PRES   REMARKS
BEMIDJI        CLOUDY    62  60  91 SE12      30.01F
HALLOCK        MOCLDY    64  63  94 SE10G16   29.92S
ROSEAU         PTCLDY    63 N/A N/A SE7       29.98S
WARROAD        PTCLDY    63  59  88 SE8       29.99F
CROOKSTON      PTCLDY    64  63  94 SE9       29.92F
FOSSTON        CLEAR     63  57  82 SE12      29.97S
DETROIT LAKES    N/A     64  59  82 SE12      29.97F
MOORHEAD       MOCLDY   N/A N/A N/A E8        29.90F
PARK RAPIDS    CLOUDY    63  59  87 SE8       30.00F
MAHNOMEN       CLOUDY    65  61  87 SE13      29.94F
$$
MNZ006-009>011-018-025>026-130900-
   North Central Minnesota

CITY           SKY/WX    TMP DP  RH WIND       PRES   REMARKS
BAUDETTE       CLEAR     60  58  92 SE9       30.03S
FLAG ISLAND      N/A    N/A N/A N/A SE13      30.00R
INTL FALLS     CLEAR     57  55  93 SE6       30.06F
WASKISH          N/A     57  55  94 E6        30.02F
BIG FORK       CLEAR     55  54  94 E3        30.11S
GRAND RAPIDS   CLOUDY    59  57  93 SE6       30.07F
CRANE LAKE     PTCLDY    52  52 100 CALM      30.12S
ORR            CLEAR     57  54  88 CALM      30.08R
COOK           CLEAR     55  54  94 CALM      30.09S
WALKER         CLOUDY    61  58  92 SE6       30.01F
$$
MNZ012-019>021-037-130900-
   Northeast Minnesota

CITY           SKY/WX    TMP DP  RH WIND       PRES   REMARKS
DULUTH         CLOUDY    62  59  90 SE10      30.09F
ELY            CLEAR     54  54 100 CALM      30.12R
HIBBING        CLOUDY    57  55  93 SE3       30.08F
EVELETH        CLOUDY    57  56  94 CALM      30.10S
DULUTH HARBOR  DRIZZLE   64  59  82 E6        30.09S
TWO HARBORS    PTCLDY    61  54  77 NE3       30.10F
SILVER BAY       N/A     57  55  94 CALM      30.11F
GRAND MARAIS     N/A     60  56  86 CALM      30.10S
G MARAIS ARPRT PTCLDY    61  52  72 CALM      30.14S
$$
MNZ029>031-032-039>041-046>048-054>057-064-130900-
   West Central Minnesota

CITY           SKY/WX    TMP DP  RH WIND       PRES   REMARKS
FERGUS FALLS   PTCLDY    66  63  88 SE12G17   29.93F
WHEATON        CLEAR     64  63  94 E10       29.91F
MORRIS         CLEAR     66  66 100 SE12      29.94S
ALEXANDRIA     MOCLDY    64  62  93 SE10      29.98F
ELBOW LAKE     FAIR      64  64  99 SE13      29.93F
WADENA         CLOUDY    61  61 100 SE9       29.98F
GLENWOOD         N/A     63  63 100 E12       29.97F
APPLETON       PTCLDY    66  64  94 SE10      29.91F
BENSON         PTCLDY    66  66 100 SE8       29.95F
ORTONVILLE     CLOUDY    64  64 100 SE10      29.90F FOG
MADISON        CLEAR     70  70 100 SE7       29.91F
WILLMAR        FAIR      70  66  88 SE10      29.99F
$$
MNZ033>034-036-042>043-049>051-058-059-130900-
   Central Minnesota

CITY           SKY/WX    TMP DP  RH WIND       PRES   REMARKS
ST CLOUD       CLOUDY    62  60  93 E5        30.00F
SAUK CENTRE    CLOUDY    64  62  96 E8        29.99S
PAYNESVILLE    PTCLDY    66  65  98 E8        29.99F
AITKIN         MOCLDY    59  55  88 E3        30.03
PINE RIVER     CLOUDY    61  55  82 E7        30.05F
BRAINERD       CLOUDY    68  61  78 VRB6      30.02F
STAPLES        CLOUDY    63  57  82 E7        30.00F
LONG PRAIRIE   CLOUDY    61  61 100 E3        30.01S
LITTLE FALLS   CLOUDY    61  61 100 CALM      30.01F
CAMP RIPLEY    LGT RAIN  62  61  94 SE6       30.02S
LITCHFIELD     CLEAR     70  70 100 SE6       30.00S
BUFFALO        PTCLDY    64  62  90 MISG      30.01S
MAPLE LAKE       N/A     66  65  95 E3        30.02S
HUTCHINSON     MOCLDY    68  67  98 SE5       30.01S
$$
MNZ037-044-045-052-053-130900-
   East Central Minnesota

CITY           SKY/WX    TMP DP  RH WIND       PRES   REMARKS
PRINCETON      CLOUDY    64  63  94 E3        30.02S
MORA           CLOUDY    61  59  94 CALM      30.05F
CAMBRIDGE      MOCLDY    66  55  68 E5        30.02F
RUSH CITY      CLOUDY    61  59  91 NE5       30.04S
MOOSE LAKE     CLOUDY    63  59  88 CALM      30.05S
HINCKLEY       CLOUDY    63  61  94 E7        30.06S
CLOQUET        CLOUDY    63  57  82 E7        30.08S
MCGREGOR       CLOUDY    63  59  88 E6        30.05F
$$
MNZ071>073-080-081-089-090-097-098-130900-
   Southwest Minnesota

CITY           SKY/WX    TMP DP  RH WIND       PRES   REMARKS
MONTEVIDEO     PTCLDY    66  64  94 S7        29.94S FOG
GRANITE FALLS  PTCLDY    71  69  96 E6        29.96S FOG
CANBY          CLEAR     69  67  94 SE5       29.93S FOG
MARSHALL       PTCLDY    70  69  97 SE9       29.94
REDWOOD FALLS  MOCLDY    70  68  93 SE8       29.96F
OLIVIA         PTCLDY    68  66  94 SE8       29.96F
PIPESTONE        N/A     72  70  94 S10G16    29.96S
WINDOM         PTCLDY    70  70 100 SE5       29.99R
WORTHINGTON    PTCLDY    72  70  93 SE8       29.98F
JACKSON        CLEAR     70  70 100 S6        30.01S
SLAYTON        PTCLDY    69  64  82 S7        29.99S
$$
MNZ065>067-074>077-082>085-091>093-130900-
   South Central Minnesota

CITY           SKY/WX    TMP DP  RH WIND       PRES   REMARKS
MANKATO        MOCLDY    71  70  96 SE9       30.02R
NEW ULM        MOCLDY    70  68  94 SE8       29.99S
ST JAMES         N/A     70  70 100 SE6       29.99S
FAIRMONT       PTCLDY    72  72 100 S8        30.01R
GLENCOE        CLEAR     66  65  94 SE6       30.00S
FARIBAULT      PTCLDY    72  66  83 SE7       30.03S
OWATONNA       PTCLDY    72  64  78 SE9       30.03S
ALBERT LEA     CLEAR     70  66  88 SE8       30.04S
$$
MNZ078>079-086>088-094>096-130900-
   Southeast Minnesota

CITY           SKY/WX    TMP DP  RH WIND       PRES   REMARKS
ROCHESTER      MOCLDY    68  62  81 SE9       30.07S
RED WING       MOCLDY    72  63  73 SE7       30.03S
STANTON        PTCLDY    70  64  79 S7        30.02S
DODGE CENTER   CLEAR     64  61  88 SE6       30.06S
WINONA         CLEAR     68  64  88 SE6       30.06S
AUSTIN         MOCLDY    70  64  83 CALM      30.06S
PRESTON        CLOUDY    68  61  76 S7        30.08S
$$
ABBREVIATIONS USED IN REMARKS
   TC - TEMPERATURES IN CELSIUS
  WCI - WIND CHILL INDEX
   HX - HEAT INDEX
  VSB - VISIBILITY
$$




USA.gov is the U.S. government's official web portal to all federal, state and local government web resources and services.